Regional Weather Roundup
Issued by NWS

Home | Current Version | Previous Version | Text Only | Print | Product List | Glossary Off
Versions: 1 2 3 4 5 6 7 8 9 10 11 12 13 14 15 16 17 18 19 20 21 22 23 24 25 26 27 28 29 30 31 32 33 34 35 36 37 38 39 40 41 42 43 44 45 46 47 48 49 50

000
ASUS45 KBOU 280807
RWRCO

WEATHER ROUNDUP FOR COLORADO
NATIONAL WEATHER SERVICE DENVER/BOULDER CO
200 AM MDT FRI APR 28 2017

NOTE: "FAIR" INDICATES FEW OR NO CLOUDS BELOW 12000 FEET WITH NO
SIGNIFICANT WEATHER AND/OR OBSTRUCTIONS TO VISIBILITY.

COZ001>005-013-030-031-280900-
...NORTHWEST COLORADO...

CITY           SKY/WX    TMP DP  RH WIND       PRES   REMARKS
CRAIG          CLOUDY    33  22  63 VRB3      29.76S
HAYDEN         MOCLDY    30  19  64 W6        29.75S WCI  24
MEEKER         CLOUDY    31  28  89 CALM      29.76F
MOUNT WERNER   NOT AVBL
STEAMBOAT SPGS CLOUDY    30  23  74 CALM      29.74F
WALDEN           N/A     23  19  86 SW8       29.71S WCI  14
$$

COZ006>008-011-280900-
...WEST CENTRAL VALLEYS...

CITY           SKY/WX    TMP DP  RH WIND       PRES   REMARKS
GRAND JUNCTION CLOUDY    38  21  50 NW9       29.76S
MONTROSE       FAIR      32  17  54 S7        29.77F WCI  26
EAGLE          FAIR      28  24  85 E8        29.77F WCI  20
RIFLE          MOCLDY    33  29  85 E3        29.76F
DELTA          FAIR      40  24  52 SE6       29.75F
NUCLA          FAIR      34  12  40 SE3       29.80R
$$

COZ017>023-064>068-280900-
...SOUTHWEST COLORADO...

CITY           SKY/WX    TMP DP  RH WIND       PRES   REMARKS
DURANGO        CLOUDY    36  18  48 SW6       29.75R
CORTEZ         CLOUDY    43  19  38 W7G26     29.78S
PAGOSA SPRINGS FAIR      30  15  54 CALM      29.74F
TELLURIDE      FAIR      28   9  44 CALM      29.79S
WOLF CREEK PAS MOCLDY    16  -2  45 W5        29.82F WCI   9
$$

COZ009-010-012-014-032>034-037-058>063-280900-
...CENTRAL COLORADO...

CITY           SKY/WX    TMP DP  RH WIND       PRES   REMARKS
ASPEN          CLOUDY    25  22  88 SW8       29.74F WCI  16
BUENA VISTA    FAIR      27  20  73 NW13      29.70F WCI  17
COPPER MTN     CLOUDY    18  10  73 MISG      29.72F
BERTHOUD PASS  CLOUDY     9  -2  61 NW31G38   29.62F WCI -14
COTTONWOOD PAS FAIR      28  12  50 W13G25    29.70F WCI  18
GUNNISON       FAIR      26  20  77 CALM      29.75F
KREMMLING      MOCLDY    34  27  75 SW3       29.75F
LEADVILLE      MOCLDY    18   9  68 NW5       29.72F WCI  11
MONARCH PASS     N/A     14  12  92 W23       29.82F WCI  -5
SALIDA         FAIR      32  24  71 W5        29.80S WCI  27
SUNLIGHT       LGT SNOW N/A N/A N/A CALM      29.78F
WILKERSON PASS FAIR      18  10  73 W9G18     29.71F WCI   6
$$

COZ069>075-280900-
...SAN LUIS VALLEY/SANGRE DE CRISTO MOUNTAINS...

CITY           SKY/WX    TMP DP  RH WIND       PRES   REMARKS
ALAMOSA        FAIR      25  19  78 S6        29.73F WCI  18
LA VETA PASS   FAIR      23  12  63 W7G17     29.83F WCI  15
SAGUACHE       FAIR      27  16  63 N9        29.73F WCI  17
$$

COZ035-036-038>040-280900-
...NORTHERN COLORADO FRONT RANGE...

CITY           SKY/WX    TMP DP  RH WIND       PRES   REMARKS
DENVER INTL AP FAIR      37  22  54 W10       29.61F
DMNS CITY PARK   N/A     42  14  32 W2G9      29.62F
AURORA         PTCLDY    37  18  46 W7        29.63S
FRONT RANGE AP FAIR      37  25  60 SW7       29.63F
ERIE MUNI ARPT FAIR      32  27  81 NE3       29.62S
BOULDER MUN AP FAIR      41  19  42 SW6       29.60F
CENTENNIAL     FAIR      39  18  42 W9        29.62F
BROOMFIELD     FAIR      39  18  41 W17       29.62F
FORT COLLINS   FAIR      32  31  96 N5        29.62F WCI  27
LONGMONT       FAIR      38  34  84 E3        29.63F FOG
$$

COZ041-046-047-076>085-087-088-280900-
...PIKES PEAK/PALMER DIVIDE AND SOUTHERN FOOTHILLS...

CITY           SKY/WX    TMP DP  RH WIND       PRES   REMARKS
COLO. SPRINGS  FAIR      38  26  62 NW7       29.65F
A. F. ACADEMY  FAIR      32  22  67 NE5       29.64F WCI  27
SCHRIEVER AFB  FAIR      37  22  55 NW8       29.64F
ELLICOTT       FAIR     N/A N/A N/A NE3       29.63F
FALCON         FAIR      33  21  61 W6        29.65F WCI  27
FORT CARSON    FAIR      34  25  69 CALM      29.63F
LIMON          FAIR      30  30 100 W8        29.62F WCI  22
MONUMENT HILL  FAIR      30  23  74 SW5       29.67S WCI  25
TRINIDAD       FAIR      37  31  78 W12       29.69S
$$

COZ042>045-048>051-090-091-280900-
...NORTHEAST COLORADO...

CITY           SKY/WX    TMP DP  RH WIND       PRES   REMARKS
GREELEY ARPT   FAIR      34  33  96 NE5       29.62F WCI  30
AKRON          CLOUDY    37  35  92 NW8       29.61F
BURLINGTON     NOT AVBL
WRAY           NOT AVBL
STERLING       FAIR      39  37  93 NE5       29.62S
HOLYOKE        DRIZZLE   41  37  87 NE9       29.61S
FORT MORGAN    FAIR      35  34  96 CALM      29.63S FOG
$$

COZ086-089-092>099-280900-
...SOUTHEAST COLORADO...

CITY           SKY/WX    TMP DP  RH WIND       PRES   REMARKS
PUEBLO         FAIR      38  33  82 E7        29.65R
LA JUNTA       FAIR      40  37  89 S6        29.66R
LAMAR          FAIR      39  35  86 NW6       29.63R
SPRINGFIELD      N/A     40  38  93 NW10      29.63R
$$



USA.gov is the U.S. government's official web portal to all federal, state and local government web resources and services.